Tracking 28125 objects as of 3-Oct-2023
HD Live streaming from Space Station
objects crossing your sky now

STARLINK-5591

Track STARLINK-5591 now!
10-day predictions
STARLINK-5591 is classified as:


NORAD ID: 55771
Int'l Code: 2023-028AG
Perigee: 577.3 km
Apogee: 581.1 km
Inclination: 70.0 °
Period: 96.1 minutes
Semi major axis: 6950 km
RCS: Unknown
Launch date: March 3, 2023
Source: United States (US)
Launch site: AIR FORCE WESTERN TEST RANGE (AFWTR)
Your satellite tracking list
Your tracking list is empty




NASA's NSSDC Master Catalog

Two Line Element Set (TLE):
1 55771U 23028AG  23275.44739841 -.00000139  00000-0 -38735-5 0  9995
2 55771  69.9994 306.5321 0002766 266.8927  93.1916 14.98324523 33336
Source of the keplerian elements: AFSPC